sat.trackr.live / text

‹ back to catalog

STARLINK-32015

NORAD 60111 · 2024-117W

PAYLOAD ACTIVE UNKNOWN

§ Identity

Operator
Country
US
Launch date
2024-06-23
Launch site
AFETR
Launch vehicle
Mass (kg)
RCS (m²)

Purposes: comms

External: N2YO · Heavens-Above · Gunter

§ Orbital elements

Epoch: 2026-09-21T05:33:21.002976Z

Period
93.85 min
Inclination
53.1591°
Eccentricity
0.0001338
Mean motion
15.34386090 rev/d
Perigee alt
461.8 km
Apogee alt
463.7 km
Semi-major
6,840.9 km
B*
-9.4972e-6
RAAN
206.0936°
Arg perigee
85.1376°
Mean anomaly
274.9779°
Rev number
12,686

§ Raw data

STARLINK-320151 60111U 24117W   26264.23149309 -.00000697  00000+0 -94972-5 0  99942 60111  53.1591 206.0936 0001338  85.1376 274.9779 15.34386090126863

JSON: /api/v1/satellites/60111 · /tle

For live sub-satellite position, see the globe view (requires WebGL).

§ Visibility from observer

Set your observer location to see the next 7 days of passes ≥ 10°. The values pass through the URL so the page stays shareable.

No JS? Fill the form by hand. The geolocation button needs JavaScript.